Flag for Belgium Weather past 2 weeks in Liège, Belgium

Now
61 °F

Scattered clouds.


Feels Like: 61 °F
Forecast: 48 / 66 °F
Wind: 10 mph from West

Location: Bierset

Current Time: Sep 2, 2015 at 5:52:56 PM

Latest Report: Sep 2, 2015 at 5:20 PM


Visibility: N/A

Pressure: 30.01 "Hg

Humidity: 68%

Dew point: 50 °F

Location of LiègeLocation

Historic Weather in Liège — Graph

°F

Liège temperature yesterday

Maximum temperature yesterday: 64 °F (at 12:50 AM)
Minimum temperature yesterday: 55 °F (at 10:20 PM)
Average temperature yesterday: 60 °F

Past Weeks' High & Low Weather Summary

 TemperatureHumidityPressure
High88 °F (Aug 30, 3:50 PM)100% (Aug 24, 1:50 AM)30.24 "Hg (Aug 24, 1:50 AM)
Low50 °F (Sep 2, 6:20 AM)30% (Aug 22, 3:20 PM)29.53 "Hg (Aug 24, 12:50 PM)
Average66 °F70%29.98 "Hg
* Reported Aug 18 4:20 PM — Sep 2 4:20 PM, Liège, Weather by CustomWeather, © 2015

Note: Actual official high and low records may vary slightly from our data, if they occured in-between our weather recording intervals... More about our weather records

Advertising

Liège weather history for previous 24 hours

 ConditionsComfort  
Time TempWeatherWind HumidityBarometerVisibility
4:20 PM
Wed, Sep 2
63 °FPassing clouds.9 mph68%30.01 "HgN/A
3:50 PM61 °FPassing clouds.7 mph72%30.01 "HgN/A
3:20 PM57 °FScattered clouds.5 mph82%30.01 "HgN/A
2:50 PM55 °FSprinkles. Scattered clouds.8 mph82%30.04 "HgN/A
2:20 PM59 °FPartly sunny.12 mph72%30.04 "HgN/A
1:50 PM64 °FScattered clouds.9 mph60%30.04 "HgN/A
1:20 PM61 °FScattered clouds.9 mph68%30.04 "HgN/A
12:50 PM61 °FScattered clouds.8 mph68%30.04 "HgN/A
12:20 PM61 °FScattered clouds.8 mph72%30.04 "HgN/A
11:50 AM59 °FScattered clouds.6 mph77%30.04 "HgN/A
11:20 AM59 °FScattered clouds.8 mph77%30.07 "HgN/A
10:50 AM59 °FPartly sunny.9 mph82%30.04 "HgN/A
10:20 AM57 °FPartly sunny.9 mph82%30.07 "Hg4 mi
9:50 AM55 °FPartly sunny.9 mph88%30.04 "Hg4 mi
9:20 AM54 °FPartly sunny.8 mph88%30.04 "Hg4 mi
8:50 AM54 °FFog.7 mph88%30.04 "Hg3 mi
8:20 AM52 °FFog.7 mph94%30.07 "Hg2 mi
7:50 AM52 °FFog.6 mph94%30.04 "Hg1 mi
7:20 AM52 °FCool.8 mph94%30.07 "Hg1 mi
6:50 AM52 °FFog.8 mph94%30.07 "Hg1 mi
6:20 AM50 °FFog.7 mph100%30.07 "Hg3 mi
5:50 AM52 °FFog.9 mph88%30.07 "Hg3 mi
5:20 AM54 °FFog.5 mph88%30.07 "Hg3 mi
4:50 AM52 °FFog.5 mph94%30.07 "Hg3 mi
4:20 AM54 °FPassing clouds.6 mph88%30.07 "HgN/A
3:50 AM54 °FClear.6 mph88%30.07 "Hg10 mi
3:20 AM52 °FClear.3 mph94%30.07 "Hg10 mi
2:50 AM52 °FClear.3 mph94%30.07 "Hg10 mi
2:20 AM54 °FClear.2 mph88%30.09 "Hg10 mi
1:50 AM52 °FClear.3 mph94%30.07 "Hg10 mi
1:20 AM54 °FClear.5 mph88%30.09 "Hg10 mi
12:50 AM54 °FClear.3 mph88%30.09 "Hg10 mi
11:50 PM
Tue, Sep 1
55 °FClear.3 mph88%30.07 "Hg10 mi
11:20 PM55 °FClear.5 mph88%30.07 "Hg10 mi
10:50 PM55 °FClear.6 mph88%30.07 "Hg10 mi
10:20 PM55 °FClear.5 mph88%30.07 "Hg10 mi
9:50 PM57 °FClear.5 mph88%30.07 "Hg10 mi
9:20 PM59 °FPassing clouds.6 mph82%30.07 "HgN/A
8:50 PM59 °FPassing clouds.6 mph88%30.07 "HgN/A
8:20 PM59 °FScattered clouds.8 mph88%30.04 "HgN/A
7:50 PM61 °FScattered clouds.9 mph88%30.04 "HgN/A
7:20 PM61 °FPassing clouds.8 mph83%30.04 "HgN/A
6:50 PM61 °FPassing clouds.9 mph83%30.04 "HgN/A
6:20 PM61 °FPassing clouds.8 mph83%30.01 "HgN/A
5:50 PM61 °FPassing clouds.9 mph83%30.01 "HgN/A
5:20 PM63 °FScattered clouds.8 mph77%30.01 "HgN/A
Weather by CustomWeather, © 2015

See weather overviewHow to use our weather pages